QPF
0.00 0.00 0.00 0.00 0.00 0.00 0.00 0.00 0.00 0.00 0.00 0.00 0.00 0.00 0.00 0.01 0.02 0.02 0.00 0.00 0.02 0.02 0.00 0.00 0.00 0.00 0.00 0.00 0.00 0.00 0.00 0.00 0.00 0.00 0.00 0.00 0.00 0.01 0.00 0.00 0.00 0.00 0.01 0.00 0.00 0.00 0.00 0.00 0.00 0.00 0.00 0.00 0.00 0.00
0.00 0.00 0.00 0.00 0.00 0.00 0.00 0.00 0.00 0.00 0.00 0.00 0.00 0.00 0.01 0.01 0.02 0.04 0.00 0.00 0.01 0.02 0.00 0.00 0.00 0.00 0.00 0.00 0.00 0.00 0.00 0.00 0.00 0.00 0.00 0.00 0.00 0.00 0.01 0.00 0.00 0.00 0.02 0.00 0.00 0.00 0.00 0.00 0.00 0.00 0.00 0.00 0.00 0.00
0.00 0.00 0.00 0.00 0.00 0.00 0.00 0.00 0.00 0.00 0.00 0.00 0.00 0.00 0.01 0.02 0.02 0.05 0.01 0.00 0.01 0.01 0.00 0.00 0.00 0.00 0.00 0.00 0.00 0.00 0.00 0.00 0.00 0.00 0.00 0.00 0.01 0.00 0.00 0.00 0.00 0.00 0.03 0.03 0.02 0.00 0.00 0.00 0.00 0.00 0.00 0.00 0.00 0.00
0.00 0.00 0.00 0.00 0.00 0.00 0.00 0.00 0.00 0.00 0.00 0.00 0.00 0.00 0.01 0.02 0.02 0.04 0.02 0.00 0.00 0.01 0.00 0.00 0.00 0.00 0.00 0.00 0.00 0.00 0.00 0.00 0.00 0.01 0.01 0.00 0.00 0.01 0.00 0.00 0.00 0.00 0.03 0.02 0.02 0.01 0.02 0.00 0.00 0.02 0.04 0.03 0.01 0.00
0.00 0.00 0.00 0.00 0.00 0.00 0.00 0.00 0.00 0.00 0.00 0.00 0.00 0.01 0.02 0.02 0.02 0.03 0.01 0.00 0.00 0.00 0.00 0.00 0.00 0.00 0.00 0.00 0.00 0.00 0.00 0.00 0.00 0.01 0.01 0.00 0.00 0.00 0.00 0.00 0.00 0.00 0.01 0.03 0.01 0.01 0.01 0.00 0.00 0.01 0.05 0.10 0.11 0.08
0.00 0.00 0.00 0.00 0.00 0.00 0.00 0.00 0.00 0.00 0.00 0.00 0.00 0.01 0.01 0.01 0.02 0.00 0.00 0.00 0.00 0.00 0.00 0.00 0.00 0.00 0.00 0.00 0.00 0.00 0.00 0.00 0.00 0.00 0.00 0.00 0.01 0.00 0.00 0.00 0.00 0.00 0.01 0.03 0.05 0.10 0.06 0.01 0.00 0.02 0.10 0.11 0.12 0.11
0.00 0.00 0.00 0.00 0.00 0.00 0.00 0.00 0.00 0.00 0.00 0.00 0.00 0.00 0.00 0.00 0.01 0.00 0.00 0.00 0.00 0.00 0.00 0.00 0.00 0.00 0.00 0.00 0.00 0.00 0.00 0.00 0.00 0.00 0.00 0.00 0.00 0.01 0.00 0.00 0.00 0.00 0.01 0.07 0.13 0.17 0.12 0.06 0.02 0.01 0.06 0.12 0.16 0.13
0.00 0.00 0.00 0.00 0.00 0.00 0.00 0.00 0.00 0.00 0.00 0.00 0.00 0.00 0.00 0.00 0.01 0.00 0.00 0.00 0.00 0.00 0.00 0.00 0.00 0.00 0.00 0.00 0.00 0.00 0.00 0.00 0.00 0.00 0.01 0.01 0.01 0.01 0.00 0.00 0.01 0.00 0.04 0.10 0.14 0.14 0.07 0.07 0.02 0.01 0.01 0.03 0.05 0.05
0.00 0.00 0.00 0.00 0.00 0.00 0.00 0.00 0.00 0.00 0.00 0.00 0.00 0.00 0.00 0.00 0.00 0.00 0.00 0.01 0.00 0.00 0.00 0.00 0.00 0.00 0.00 0.00 0.00 0.00 0.00 0.00 0.00 0.01 0.01 0.01 0.00 0.00 0.00 0.02 0.02 0.08 0.09 0.13 0.11 0.09 0.07 0.05 0.02 0.00 0.00 0.00 0.01 0.01
0.00 0.00 0.00 0.00 0.00 0.00 0.00 0.00 0.00 0.00 0.00 0.00 0.00 0.00 0.00 0.00 0.00 0.01 0.00 0.00 0.00 0.00 0.00 0.00 0.00 0.00 0.00 0.00 0.00 0.00 0.01 0.01 0.00 0.00 0.01 0.00 0.00 0.00 0.01 0.02 0.02 0.07 0.08 0.09 0.06 0.05 0.04 0.02 0.01 0.00 0.00 0.00 0.00 0.01
0.00 0.00 0.00 0.00 0.00 0.00 0.00 0.00 0.00 0.00 0.00 0.00 0.00 0.00 0.00 0.00 0.00 0.00 0.00 0.00 0.00 0.00 0.00 0.00 0.00 0.00 0.00 0.00 0.00 0.01 0.00 0.00 0.00 0.00 0.01 0.00 0.00 0.00 0.01 0.02 0.01 0.01 0.03 0.02 0.01 0.01 0.01 0.01 0.00 0.00 0.00 0.00 0.00 0.00
0.00 0.00 0.00 0.00 0.00 0.00 0.00 0.00 0.00 0.00 0.00 0.00 0.00 0.00 0.00 0.00 0.00 0.00 0.00 0.00 0.00 0.00 0.00 0.00 0.00 0.00 0.00 0.00 0.00 0.00 0.00 0.00 0.00 0.00 0.00 0.00 0.00 0.01 0.01 0.02 0.01 0.00 0.01 0.01 0.01 0.02 0.01 0.00 0.00 0.00 0.00 0.00 0.00 0.00
0.00 0.00 0.00 0.00 0.00 0.00 0.00 0.00 0.00 0.00 0.00 0.00 0.00 0.00 0.00 0.00 0.00 0.00 0.00 0.00 0.00 0.00 0.00 0.00 0.00 0.00 0.00 0.00 0.00 0.00 0.00 0.00 0.00 0.00 0.00 0.01 0.02 0.02 0.02 0.02 0.01 0.02 0.01 0.01 0.02 0.02 0.01 0.00 0.00 0.00 0.00 0.00 0.00 0.00
0.00 0.00 0.00 0.00 0.00 0.00 0.00 0.00 0.00 0.00 0.00 0.00 0.00 0.00 0.00 0.00 0.01 0.01 0.00 0.00 0.00 0.00 0.00 0.00 0.00 0.00 0.00 0.00 0.00 0.00 0.00 0.00 0.00 0.00 0.01 0.02 0.02 0.01 0.00 0.01 0.01 0.01 0.01 0.01 0.01 0.01 0.01 0.00 0.00 0.00 0.00 0.00 0.00 0.00
0.00 0.00 0.00 0.00 0.00 0.00 0.00 0.00 0.00 0.00 0.00 0.00 0.00 0.00 0.01 0.00 0.00 0.00 0.00 0.00 0.00 0.00 0.00 0.00 0.00 0.00 0.00 0.00 0.00 0.00 0.00 0.00 0.00 0.01 0.02 0.02 0.00 0.00 0.00 0.00 0.00 0.00 0.00 0.00 0.00 0.00 0.00 0.00 0.00 0.00 0.00 0.01 0.00 0.01
0.00 0.00 0.00 0.00 0.00 0.00 0.00 0.00 0.00 0.00 0.00 0.00 0.00 0.00 0.00 0.00 0.00 0.00 0.00 0.00 0.00 0.00 0.00 0.00 0.00 0.00 0.00 0.00 0.00 0.00 0.00 0.00 0.01 0.01 0.02 0.02 0.00 0.00 0.00 0.00 0.00 0.00 0.00 0.00 0.00 0.00 0.00 0.00 0.00 0.00 0.00 0.00 0.00 0.00
0.00 0.00 0.00 0.00 0.00 0.00 0.00 0.00 0.00 0.00 0.00 0.00 0.00 0.00 0.00 0.00 0.00 0.00 0.00 0.00 0.00 0.00 0.00 0.00 0.00 0.00 0.00 0.00 0.00 0.01 0.01 0.00 0.00 0.00 0.00 0.00 0.00 0.00 0.00 0.00 0.00 0.00 0.00 0.00 0.00 0.00 0.00 0.00 0.00 0.00 0.00 0.00 0.00 0.00
0.00 0.00 0.00 0.00 0.00 0.00 0.00 0.00 0.00 0.00 0.00 0.00 0.00 0.00 0.00 0.00 0.00 0.00 0.00 0.00 0.00 0.00 0.00 0.00 0.00 0.00 0.00 0.01 0.00 0.00 0.00 0.00 0.00 0.00 0.00 0.00 0.00 0.00 0.00 0.00 0.00 0.00 0.00 0.00 0.00 0.00 0.00 0.00 0.00 0.00 0.00 0.00 0.00 0.00
0.00 0.00 0.00 0.00 0.00 0.00 0.00 0.00 0.00 0.00 0.00 0.00 0.00 0.00 0.00 0.00 0.00 0.00 0.00 0.00 0.00 0.00 0.00 0.00 0.00 0.00 0.00 0.00 0.00 0.00 0.00 0.00 0.00 0.00 0.00 0.00 0.00 0.00 0.00 0.00 0.00 0.00 0.00 0.00 0.00 0.00 0.00 0.00 0.00 0.00 0.00 0.00 0.00 0.00
0.00 0.00 0.00 0.00 0.00 0.00 0.00 0.00 0.00 0.00 0.00 0.00 0.00 0.00 0.00 0.00 0.00 0.00 0.00 0.00 0.00 0.00 0.00 0.00 0.00 0.00 0.00 0.00 0.00 0.00 0.00 0.00 0.00 0.00 0.00 0.00 0.00 0.00 0.00 0.00 0.00 0.00 0.00 0.00 0.00 0.00 0.00 0.00 0.00 0.00 0.00 0.00 0.00 0.00
0.00 0.00 0.00 0.00 0.00 0.00 0.00 0.00 0.00 0.00 0.00 0.00 0.00 0.00 0.00 0.00 0.00 0.00 0.00 0.00 0.00 0.00 0.00 0.00 0.00 0.00 0.00 0.00 0.00 0.00 0.00 0.00 0.00 0.00 0.00 0.00 0.00 0.00 0.00 0.00 0.00 0.00 0.00 0.00 0.00 0.00 0.00 0.00 0.00 0.00 0.00 0.00 0.00 0.00
0.00 0.00 0.00 0.00 0.00 0.00 0.00 0.00 0.00 0.00 0.00 0.00 0.00 0.00 0.00 0.00 0.00 0.00 0.00 0.00 0.00 0.00 0.00 0.00 0.00 0.00 0.00 0.00 0.00 0.00 0.00 0.00 0.00 0.00 0.00 0.00 0.00 0.00 0.00 0.00 0.00 0.00 0.00 0.00 0.00 0.00 0.00 0.00 0.00 0.00 0.00 0.00 0.00 0.00
0.00 0.00 0.00 0.00 0.00 0.00 0.00 0.00 0.00 0.00 0.00 0.00 0.00 0.00 0.00 0.00 0.00 0.00 0.00 0.00 0.00 0.00 0.00 0.00 0.00 0.00 0.00 0.00 0.00 0.00 0.00 0.00 0.00 0.00 0.00 0.00 0.00 0.00 0.00 0.00 0.00 0.00 0.00 0.00 0.00 0.00 0.00 0.00 0.00 0.00 0.00 0.00 0.00 0.00
0.00 0.00 0.00 0.00 0.00 0.00 0.00 0.00 0.00 0.00 0.00 0.00 0.00 0.00 0.00 0.00 0.00 0.00 0.00 0.00 0.00 0.00 0.00 0.00 0.00 0.00 0.00 0.00 0.00 0.00 0.00 0.00 0.00 0.00 0.00 0.00 0.00 0.00 0.00 0.00 0.00 0.00 0.00 0.00 0.00 0.00 0.00 0.00 0.00 0.00 0.00 0.00 0.00 0.00
0.00 0.00 0.00 0.00 0.00 0.00 0.00 0.00 0.00 0.00 0.00 0.00 0.00 0.00 0.00 0.00 0.00 0.00 0.00 0.00 0.00 0.00 0.00 0.00 0.00 0.00 0.00 0.00 0.00 0.00 0.00 0.00 0.00 0.00 0.00 0.00 0.00 0.00 0.00 0.00 0.00 0.00 0.00 0.00 0.00 0.00 0.00 0.00 0.00 0.00 0.00 0.00 0.00 0.00
0.00 0.00 0.00 0.00 0.00 0.00 0.00 0.00 0.00 0.00 0.00 0.00 0.00 0.00 0.00 0.00 0.00 0.00 0.00 0.00 0.00 0.00 0.00 0.00 0.00 0.00 0.00 0.00 0.00 0.00 0.00 0.00 0.00 0.00 0.00 0.00 0.00 0.00 0.00 0.00 0.00 0.00 0.00 0.00 0.00 0.00 0.00 0.00 0.00 0.00 0.00 0.00 0.00 0.00
0.00 0.00 0.00 0.00 0.00 0.00 0.00 0.00 0.00 0.00 0.00 0.00 0.00 0.00 0.00 0.00 0.00 0.00 0.00 0.00 0.00 0.00 0.00 0.00 0.00 0.00 0.00 0.00 0.00 0.00 0.00 0.00 0.00 0.00 0.00 0.00 0.00 0.00 0.00 0.00 0.00 0.00 0.00 0.00 0.00 0.00 0.00 0.00 0.00 0.00 0.00 0.00 0.00 0.00
0.00 0.00 0.00 0.00 0.00 0.00 0.00 0.00 0.00 0.00 0.00 0.00 0.00 0.00 0.00 0.00 0.00 0.00 0.00 0.00 0.00 0.00 0.00 0.00 0.00 0.00 0.00 0.00 0.00 0.00 0.00 0.00 0.00 0.00 0.00 0.00 0.00 0.00 0.00 0.00 0.00 0.00 0.00 0.00 0.00 0.00 0.00 0.00 0.00 0.00 0.00 0.00 0.00 0.00
0.00 0.00 0.00 0.00 0.00 0.00 0.00 0.00 0.00 0.00 0.00 0.00 0.00 0.00 0.00 0.00 0.00 0.00 0.00 0.00 0.00 0.00 0.00 0.00 0.00 0.00 0.00 0.00 0.00 0.00 0.00 0.00 0.00 0.00 0.00 0.00 0.00 0.00 0.00 0.00 0.00 0.00 0.00 0.00 0.00 0.00 0.00 0.00 0.00 0.00 0.00 0.00 0.00 0.00
0.00 0.00 0.00 0.00 0.00 0.00 0.00 0.00 0.00 0.00 0.00 0.00 0.00 0.00 0.00 0.00 0.00 0.00 0.00 0.00 0.00 0.00 0.00 0.00 0.00 0.00 0.00 0.00 0.00 0.00 0.00 0.00 0.00 0.00 0.00 0.00 0.00 0.00 0.00 0.00 0.00 0.00 0.00 0.00 0.00 0.00 0.00 0.00 0.00 0.00 0.00 0.00 0.00 0.00
0.00 0.00 0.00 0.00 0.00 0.00 0.00 0.00 0.01 0.01 0.00 0.00 0.00 0.00 0.00 0.00 0.00 0.00 0.00 0.00 0.00 0.00 0.00 0.00 0.00 0.00 0.00 0.00 0.00 0.00 0.00 0.00 0.00 0.00 0.00 0.00 0.00 0.00 0.00 0.00 0.00 0.00 0.00 0.00 0.00 0.00 0.00 0.00 0.00 0.00 0.00 0.00 0.00 0.00
0.00 0.00 0.00 0.00 0.00 0.00 0.00 0.00 0.00 0.01 0.00 0.00 0.01 0.00 0.00 0.00 0.00 0.00 0.00 0.00 0.00 0.00 0.00 0.00 0.00 0.00 0.00 0.00 0.00 0.00 0.00 0.00 0.00 0.00 0.00 0.00 0.00 0.00 0.00 0.00 0.00 0.00 0.00 0.00 0.00 0.00 0.00 0.00 0.00 0.00 0.00 0.00 0.00 0.00
0.00 0.00 0.00 0.00 0.00 0.00 0.00 0.00 0.00 0.00 0.00 0.00 0.00 0.00 0.00 0.00 0.00 0.00 0.00 0.00 0.00 0.00 0.00 0.00 0.00 0.00 0.00 0.00 0.00 0.00 0.00 0.00 0.00 0.00 0.00 0.00 0.00 0.00 0.00 0.00 0.00 0.00 0.00 0.00 0.00 0.00 0.00 0.00 0.00 0.00 0.00 0.00 0.00 0.00
MSLP
1025.61 1025.25 1024.60 1023.99 1023.41 1022.73 1022.02 1021.34 1020.79 1020.15 1019.51 1018.99 1018.57 1018.21 1017.77 1017.26 1017.02 1017.39 1017.30 1017.43 1017.53 1016.58 1015.43 1014.98 1014.84 1014.80 1014.62 1014.83 1014.94 1014.60 1014.58 1014.15 1014.07 1013.86 1013.72 1012.89 1012.17 1011.16 1010.34 1008.95 1008.17 1008.14 1007.85 1007.07 1006.66 1004.41 1001.29 999.43 999.00 998.67 997.57 996.72 996.59 995.91
1025.09 1024.77 1024.16 1023.42 1022.80 1022.16 1021.40 1020.70 1020.18 1019.49 1018.81 1018.23 1017.67 1017.23 1016.89 1016.40 1016.14 1016.11 1016.51 1016.34 1016.48 1016.34 1014.82 1014.30 1013.89 1013.39 1013.23 1013.54 1014.10 1014.25 1013.95 1013.94 1013.71 1013.80 1013.57 1013.01 1012.25 1011.27 1010.37 1008.91 1007.18 1007.13 1005.87 1004.91 1004.05 1001.32 999.86 998.70 998.55 997.90 997.85 997.30 996.26 995.84
1024.67 1024.19 1023.66 1022.84 1022.16 1021.55 1020.68 1019.99 1019.39 1018.73 1017.93 1017.40 1016.77 1016.30 1015.62 1015.17 1015.00 1015.19 1015.01 1015.39 1015.93 1015.35 1013.98 1013.14 1011.92 1011.45 1011.86 1012.20 1012.79 1013.37 1013.21 1013.42 1013.31 1013.35 1013.15 1012.69 1012.00 1011.03 1010.02 1008.51 1007.21 1005.89 1004.82 1004.19 1003.24 1000.22 999.26 998.91 998.51 998.03 997.60 996.91 996.08 995.51
1024.16 1023.56 1023.02 1022.39 1021.57 1020.91 1019.95 1019.17 1018.58 1017.77 1017.02 1016.32 1015.66 1015.16 1014.52 1013.88 1013.79 1013.94 1014.20 1014.28 1014.93 1015.08 1014.72 1012.15 1011.21 1010.87 1010.56 1011.09 1011.84 1011.97 1012.39 1012.41 1012.72 1012.68 1012.44 1011.91 1011.37 1010.44 1009.45 1008.44 1007.49 1006.25 1005.57 1003.60 1002.17 1000.13 999.26 998.53 998.12 997.75 997.46 996.36 996.04 995.24
1023.56 1022.95 1022.27 1021.72 1020.94 1020.16 1019.20 1018.23 1017.71 1016.81 1016.03 1015.22 1014.35 1014.16 1013.32 1012.95 1013.04 1013.29 1013.46 1013.52 1013.68 1014.54 1014.10 1012.25 1011.11 1009.74 1009.85 1010.35 1010.98 1011.53 1011.90 1012.27 1012.70 1012.44 1011.72 1010.97 1010.41 1009.99 1008.67 1007.64 1005.35 1004.34 1003.57 1003.29 1000.89 999.42 998.97 998.40 998.08 997.72 997.44 996.24 996.13 995.16
1022.87 1022.24 1021.54 1020.99 1020.25 1019.28 1018.37 1017.39 1016.70 1015.70 1014.86 1014.07 1013.31 1012.82 1012.32 1012.25 1012.49 1013.16 1013.31 1013.14 1013.11 1013.67 1013.99 1012.75 1011.17 1009.99 1009.58 1010.03 1010.42 1011.03 1011.36 1012.02 1012.12 1011.76 1010.91 1009.80 1009.11 1009.31 1007.69 1004.92 1002.44 1002.12 1001.82 1001.43 1000.41 999.44 998.80 998.28 998.14 997.53 997.56 996.35 996.35 995.75
1022.35 1021.58 1020.68 1020.19 1019.65 1018.66 1017.50 1016.87 1015.81 1014.66 1013.76 1013.04 1012.26 1011.54 1011.26 1011.57 1012.10 1012.78 1012.92 1012.66 1013.03 1013.54 1013.68 1012.76 1011.52 1010.02 1009.34 1009.33 1009.68 1010.19 1010.58 1010.74 1010.75 1010.49 1009.48 1008.75 1008.10 1007.75 1005.76 1003.02 999.58 1000.76 1000.56 1000.05 999.55 999.26 999.04 998.50 998.27 997.71 997.21 996.46 996.46 996.60
1021.58 1020.67 1019.94 1019.27 1018.86 1018.21 1016.90 1016.00 1015.07 1013.89 1012.73 1011.94 1011.54 1010.70 1010.27 1010.90 1011.78 1012.11 1012.19 1012.42 1012.91 1013.43 1013.63 1013.17 1011.62 1010.82 1009.27 1009.03 1009.16 1009.09 1009.53 1009.84 1009.26 1008.75 1007.68 1006.71 1006.25 1005.73 1003.91 1000.53 998.71 997.11 998.32 998.88 998.28 998.06 998.09 997.92 997.80 997.81 996.81 996.58 996.36 997.15
1020.65 1019.97 1019.24 1018.60 1018.03 1017.34 1016.45 1015.26 1014.35 1013.14 1011.98 1011.20 1010.87 1010.91 1011.15 1011.59 1011.77 1011.97 1011.82 1012.33 1012.88 1013.84 1013.68 1013.23 1012.26 1011.18 1009.87 1009.08 1008.63 1008.28 1008.23 1008.10 1007.56 1007.19 1006.34 1005.86 1005.03 1004.13 1001.53 999.38 996.92 996.12 997.00 997.14 997.73 997.94 997.59 997.45 997.40 997.61 996.91 997.03 997.40 997.76
1019.95 1019.29 1018.57 1017.94 1017.31 1016.58 1015.62 1014.56 1013.64 1012.36 1011.38 1010.63 1010.84 1011.24 1011.64 1011.90 1011.62 1012.10 1012.41 1013.03 1013.29 1013.49 1013.69 1013.25 1012.48 1011.43 1010.72 1009.32 1008.31 1008.04 1007.76 1007.38 1006.98 1006.54 1005.80 1005.27 1004.18 1002.13 1000.74 999.18 997.68 996.94 997.00 997.42 998.07 998.41 998.00 997.66 998.14 998.00 998.24 997.84 999.45 1000.83
1019.33 1018.68 1017.97 1017.25 1016.55 1015.80 1014.91 1014.12 1013.16 1012.23 1011.10 1011.30 1011.97 1012.29 1012.10 1011.79 1011.83 1011.71 1012.25 1012.88 1013.34 1013.22 1013.06 1012.32 1011.89 1011.21 1010.03 1009.55 1008.69 1008.33 1008.01 1007.78 1007.24 1006.41 1005.95 1005.27 1003.99 1002.25 1000.92 999.56 998.26 997.87 998.05 997.79 997.96 998.85 998.78 998.55 998.81 999.09 999.55 1000.21 1000.47 1000.47
1018.69 1018.07 1017.35 1016.56 1015.78 1015.02 1014.13 1013.48 1013.03 1012.47 1012.34 1012.39 1012.52 1012.45 1012.14 1011.76 1011.42 1011.56 1011.74 1012.12 1012.06 1011.64 1011.49 1011.14 1010.44 1010.37 1009.58 1009.04 1008.81 1008.54 1008.38 1008.17 1007.28 1006.76 1006.25 1005.48 1004.50 1002.68 1001.15 999.96 998.94 999.01 999.08 999.20 999.14 999.45 999.73 999.38 999.44 999.91 1000.17 1000.23 1000.25 1001.02
1018.22 1017.54 1016.73 1015.92 1015.14 1014.30 1013.34 1012.99 1012.41 1011.95 1011.84 1012.08 1012.23 1012.23 1012.21 1012.33 1012.20 1012.20 1012.18 1011.76 1010.66 1010.21 1010.08 1009.74 1009.45 1009.35 1009.14 1008.90 1008.68 1008.35 1008.12 1008.07 1007.65 1007.48 1007.35 1006.55 1005.93 1004.48 1003.79 1002.97 1002.23 1001.43 1000.79 1000.62 1000.65 1000.62 1000.29 1000.12 1000.09 1000.00 1000.43 1000.83 1000.76 1000.87
1017.66 1016.95 1016.17 1015.39 1014.68 1013.78 1013.11 1012.54 1011.80 1011.55 1011.56 1012.35 1012.83 1013.37 1013.65 1013.63 1013.57 1013.19 1012.83 1012.16 1010.82 1009.86 1009.18 1008.92 1009.05 1009.10 1008.81 1008.85 1008.85 1008.61 1009.02 1008.69 1008.76 1008.70 1008.63 1008.35 1007.63 1007.10 1006.29 1005.53 1004.66 1004.11 1003.36 1002.82 1002.23 1001.72 1001.30 1001.20 1001.19 1001.14 1001.46 1001.51 1001.43 1002.03
1017.08 1016.35 1015.60 1014.87 1014.38 1013.61 1012.97 1012.25 1011.66 1011.72 1012.16 1013.17 1013.80 1015.23 1015.18 1015.02 1014.20 1013.10 1012.33 1011.35 1010.12 1009.29 1008.88 1008.80 1009.01 1009.15 1009.34 1009.48 1010.00 1010.30 1010.12 1010.33 1010.59 1010.07 1010.41 1010.00 1009.07 1008.49 1007.61 1006.77 1006.25 1005.67 1005.16 1004.81 1004.34 1003.93 1003.63 1003.31 1003.51 1003.41 1003.23 1003.17 1003.18 1002.93
1016.72 1015.81 1015.31 1014.90 1014.21 1013.47 1012.63 1012.09 1012.01 1012.26 1013.16 1014.19 1015.56 1016.24 1015.67 1014.61 1013.75 1012.61 1012.02 1011.26 1009.84 1009.32 1009.27 1009.47 1010.09 1010.51 1011.27 1011.55 1011.67 1011.93 1012.14 1012.31 1012.34 1011.75 1011.47 1010.95 1010.29 1009.38 1008.92 1008.35 1007.77 1006.93 1006.43 1006.22 1006.08 1005.69 1005.27 1005.02 1005.14 1005.30 1005.16 1004.97 1004.90 1004.95
1016.68 1016.33 1015.44 1015.00 1014.22 1013.33 1012.75 1012.57 1012.78 1013.71 1015.06 1016.24 1017.02 1016.80 1016.63 1016.18 1015.68 1014.69 1013.34 1012.27 1011.18 1010.48 1011.05 1011.31 1012.76 1013.52 1013.54 1013.99 1014.37 1014.54 1014.65 1014.48 1013.70 1012.97 1012.45 1011.92 1011.49 1010.90 1010.13 1009.38 1008.91 1008.46 1008.16 1007.87 1007.46 1007.06 1006.93 1006.84 1006.39 1006.12 1006.23 1006.58 1006.03 1005.93
1017.13 1016.36 1015.75 1015.27 1014.96 1014.23 1013.61 1013.66 1014.25 1015.48 1016.83 1017.51 1017.69 1017.41 1017.03 1016.61 1016.22 1015.21 1014.22 1013.17 1012.62 1012.83 1013.15 1014.05 1014.95 1015.98 1016.47 1016.89 1016.98 1016.77 1016.01 1015.13 1014.42 1014.12 1013.67 1013.01 1012.55 1012.15 1011.66 1011.46 1011.06 1010.62 1010.14 1009.67 1009.61 1009.52 1009.18 1008.99 1009.07 1009.18 1008.86 1008.35 1007.76 1007.62
1017.17 1016.58 1015.86 1015.49 1015.39 1015.33 1015.16 1015.07 1015.38 1016.69 1017.43 1017.80 1017.70 1017.48 1017.35 1017.27 1016.68 1015.96 1015.13 1014.42 1013.91 1013.84 1014.30 1015.53 1016.85 1017.93 1018.29 1018.22 1017.99 1017.33 1016.65 1015.91 1015.47 1014.95 1014.50 1014.01 1013.56 1013.09 1012.63 1012.22 1012.04 1011.78 1011.62 1011.54 1011.35 1011.43 1011.46 1011.33 1011.08 1010.48 1009.85 1009.36 1009.55 1009.80
1016.32 1015.98 1015.71 1015.44 1015.39 1015.62 1016.02 1016.37 1016.13 1016.80 1017.57 1017.95 1017.98 1017.88 1017.95 1017.98 1017.46 1016.99 1016.50 1016.02 1015.70 1015.72 1016.87 1017.97 1018.74 1018.92 1018.83 1018.61 1018.39 1018.15 1017.51 1016.85 1016.33 1015.96 1015.52 1015.05 1014.52 1014.03 1013.75 1013.45 1013.31 1013.00 1012.67 1012.49 1012.42 1012.22 1012.04 1011.70 1011.47 1011.25 1011.04 1010.81 1010.69 1010.97
1016.21 1015.97 1015.58 1015.53 1015.64 1015.82 1016.38 1016.67 1016.92 1017.11 1017.41 1017.73 1017.86 1018.03 1018.11 1017.96 1018.02 1017.93 1017.80 1017.41 1017.38 1018.23 1018.89 1019.23 1019.28 1019.12 1018.78 1018.49 1018.25 1018.07 1017.81 1017.34 1017.18 1016.78 1016.50 1016.09 1015.54 1015.12 1014.80 1014.56 1014.39 1014.24 1014.13 1014.06 1013.80 1013.40 1013.08 1013.21 1012.91 1012.48 1012.16 1012.08 1012.06 1012.05
1016.69 1016.25 1016.09 1015.82 1016.12 1016.25 1016.46 1016.83 1017.04 1017.14 1017.47 1017.69 1017.89 1018.03 1018.26 1018.40 1018.63 1018.67 1018.62 1018.66 1018.86 1019.10 1019.19 1019.41 1019.44 1019.36 1019.11 1018.94 1018.82 1018.55 1018.30 1017.85 1017.56 1017.34 1017.02 1016.70 1016.55 1016.22 1016.04 1015.82 1015.44 1015.30 1015.06 1014.91 1014.64 1014.38 1014.00 1013.81 1013.38 1013.14 1013.00 1013.15 1013.08 1013.08
1016.69 1016.65 1016.58 1016.38 1016.48 1016.63 1017.13 1016.73 1016.95 1017.21 1017.55 1017.95 1018.02 1018.37 1018.57 1018.54 1018.59 1018.77 1019.67 1019.83 1019.76 1019.46 1019.46 1019.50 1019.48 1019.46 1019.41 1019.25 1018.96 1018.87 1018.80 1018.63 1018.41 1018.22 1017.97 1017.78 1017.52 1017.20 1016.82 1016.48 1016.21 1016.04 1015.94 1015.81 1015.42 1015.05 1014.79 1014.47 1014.26 1014.17 1014.17 1014.08 1014.07 1014.03
1016.83 1017.14 1017.19 1017.20 1017.28 1017.21 1016.89 1016.94 1017.04 1017.25 1017.44 1017.90 1018.33 1018.73 1018.87 1018.90 1018.78 1019.52 1020.30 1020.31 1019.90 1019.67 1019.59 1019.65 1019.65 1019.75 1019.67 1019.52 1019.73 1019.76 1019.54 1019.33 1019.13 1018.84 1018.69 1018.41 1018.14 1017.94 1017.70 1017.41 1017.06 1016.76 1016.59 1016.33 1015.93 1015.72 1015.51 1015.41 1015.28 1015.22 1015.15 1015.04 1015.06 1015.03
1017.80 1017.94 1017.76 1017.73 1017.59 1017.46 1017.40 1017.24 1017.15 1017.33 1017.65 1018.03 1018.40 1018.79 1018.97 1019.07 1019.39 1020.16 1020.60 1020.34 1020.00 1019.69 1019.60 1019.60 1019.71 1019.87 1020.13 1020.21 1020.12 1020.00 1019.80 1019.69 1019.60 1019.51 1019.27 1019.04 1018.68 1018.31 1018.02 1017.73 1017.44 1017.22 1016.94 1016.58 1016.44 1016.20 1016.11 1015.88 1015.77 1015.71 1015.67 1015.68 1015.67 1015.66
1018.00 1017.84 1017.90 1017.78 1017.89 1017.87 1017.81 1017.73 1017.72 1017.78 1017.80 1018.09 1018.52 1018.79 1018.92 1019.33 1019.87 1020.33 1020.33 1019.95 1019.90 1019.53 1019.36 1019.36 1019.60 1020.15 1020.35 1020.28 1020.38 1020.20 1020.11 1019.94 1019.86 1019.76 1019.74 1019.54 1019.30 1019.14 1019.02 1018.73 1018.34 1017.67 1017.42 1017.27 1016.94 1016.69 1016.62 1016.57 1016.46 1016.36 1016.31 1016.30 1016.28 1016.25
1017.66 1017.61 1017.61 1017.76 1017.75 1017.75 1017.75 1017.74 1017.72 1017.82 1018.00 1018.30 1018.65 1018.86 1019.19 1019.46 1019.81 1019.93 1019.47 1019.42 1019.46 1019.02 1018.89 1018.85 1019.17 1019.55 1019.94 1020.23 1020.32 1020.22 1020.16 1020.05 1020.00 1020.02 1020.00 1019.82 1019.63 1019.55 1019.42 1019.24 1018.90 1018.43 1017.86 1017.38 1017.07 1016.93 1016.95 1016.99 1016.97 1016.96 1016.95 1016.92 1016.90 1016.87
1017.19 1017.30 1017.41 1017.55 1017.51 1017.47 1017.56 1017.60 1017.74 1017.95 1018.09 1018.34 1018.62 1018.90 1019.05 1019.19 1019.25 1019.07 1018.87 1018.78 1018.81 1018.88 1019.05 1019.19 1019.31 1019.55 1019.99 1020.21 1020.32 1020.29 1020.15 1020.11 1020.02 1020.03 1020.06 1019.89 1019.72 1019.58 1019.37 1019.09 1018.71 1018.25 1017.83 1017.55 1017.41 1017.23 1017.15 1017.16 1017.21 1017.24 1017.25 1017.33 1017.34 1017.21
1016.90 1016.74 1016.92 1017.02 1017.12 1017.21 1017.10 1017.11 1017.25 1017.36 1017.49 1017.93 1018.29 1018.63 1018.51 1018.50 1018.18 1018.17 1018.31 1018.40 1018.58 1018.88 1019.35 1019.61 1019.99 1020.07 1020.30 1020.52 1020.57 1020.59 1020.60 1020.56 1020.52 1020.54 1020.48 1020.44 1020.26 1019.92 1019.59 1019.23 1018.81 1018.42 1018.15 1017.86 1017.59 1017.46 1017.37 1017.40 1017.47 1017.56 1017.64 1017.66 1017.63 1017.48
1016.12 1016.21 1016.53 1016.54 1016.61 1016.51 1016.00 1016.05 1016.40 1016.60 1017.06 1017.23 1017.46 1017.90 1018.02 1017.83 1017.63 1017.69 1017.94 1018.35 1018.72 1018.85 1019.01 1019.35 1019.71 1020.10 1020.48 1020.67 1020.77 1020.80 1020.70 1020.69 1020.69 1020.73 1020.66 1020.54 1020.49 1020.27 1019.99 1019.61 1019.20 1018.77 1018.39 1018.08 1017.97 1017.96 1017.84 1017.84 1017.89 1017.91 1017.89 1017.85 1017.77 1017.66
1015.36 1015.82 1015.93 1015.95 1015.81 1015.43 1015.45 1015.75 1016.08 1016.38 1016.82 1017.11 1017.33 1017.56 1017.68 1017.66 1017.49 1017.48 1017.66 1017.88 1018.13 1018.62 1019.04 1019.46 1019.83 1020.00 1020.28 1020.42 1020.57 1020.65 1020.64 1020.47 1020.46 1020.39 1020.37 1020.36 1020.35 1020.27 1020.05 1019.77 1019.46 1019.09 1018.76 1018.53 1018.39 1018.32 1018.26 1018.27 1018.31 1018.31 1018.24 1018.15 1018.01 1017.84
1014.98 1015.14 1015.33 1015.48 1015.46 1015.47 1015.60 1015.82 1016.19 1016.37 1016.65 1016.89 1017.12 1017.25 1017.59 1017.74 1017.86 1017.53 1017.48 1017.84 1018.33 1018.68 1018.86 1019.19 1019.51 1019.63 1019.64 1019.74 1019.80 1019.92 1019.79 1019.97 1020.02 1019.99 1020.05 1020.19 1020.15 1020.10 1020.03 1019.90 1019.67 1019.39 1019.18 1019.03 1018.91 1018.82 1018.73 1018.68 1018.62 1018.54 1018.44 1018.28 1018.08 1017.84
1014.28 1014.42 1014.65 1015.02 1015.32 1015.44 1015.42 1015.66 1015.99 1016.21 1016.41 1016.57 1016.55 1016.63 1016.77 1017.15 1017.44 1017.33 1017.39 1017.49 1017.76 1018.08 1018.44 1018.66 1018.89 1019.06 1019.26 1019.39 1019.49 1019.45 1019.44 1019.54 1019.66 1019.73 1019.81 1019.81 1019.79 1019.74 1019.69 1019.71 1019.69 1019.55 1019.41 1019.32 1019.21 1019.07 1018.98 1018.89 1018.77 1018.61 1018.41 1018.18 1017.96 1017.72
Thickness
5520 5515 5512 5508 5506 5504 5502 5500 5496 5492 5486 5478 5467 5457 5450 5445 5439 5429 5423 5412 5402 5403 5405 5406 5406 5402 5406 5404 5400 5407 5402 5409 5413 5421 5427 5437 5453 5459 5460 5493 5504 5498 5512 5519 5532 5551 5584 5652 5664 5674 5697 5714 5729 5744
5521 5515 5512 5510 5508 5505 5503 5503 5500 5497 5492 5484 5476 5467 5460 5454 5448 5440 5430 5424 5414 5407 5413 5412 5411 5414 5416 5413 5409 5408 5417 5408 5420 5419 5425 5430 5445 5451 5455 5473 5499 5499 5524 5539 5550 5578 5608 5644 5660 5679 5688 5703 5723 5739
5521 5518 5514 5512 5509 5508 5507 5507 5505 5503 5500 5491 5485 5477 5472 5467 5459 5449 5444 5435 5423 5421 5423 5423 5429 5433 5428 5424 5420 5414 5421 5420 5420 5417 5419 5430 5447 5454 5452 5473 5492 5506 5519 5524 5545 5592 5609 5622 5646 5671 5686 5703 5719 5732
5522 5520 5516 5513 5511 5510 5510 5512 5510 5510 5507 5501 5496 5488 5482 5478 5470 5461 5452 5446 5435 5428 5423 5438 5445 5443 5443 5436 5429 5431 5430 5428 5429 5433 5436 5442 5447 5454 5460 5469 5473 5489 5490 5521 5535 5582 5603 5619 5637 5664 5682 5704 5714 5730
5524 5522 5519 5516 5514 5514 5515 5518 5516 5517 5515 5512 5510 5500 5495 5488 5477 5467 5461 5455 5448 5435 5435 5449 5451 5459 5454 5447 5443 5440 5437 5434 5431 5437 5445 5454 5455 5456 5464 5468 5483 5493 5499 5497 5540 5583 5595 5614 5629 5656 5679 5699 5708 5724
5526 5525 5522 5520 5518 5518 5518 5522 5522 5526 5525 5523 5520 5516 5509 5498 5486 5473 5465 5462 5455 5446 5441 5450 5454 5465 5468 5459 5455 5449 5446 5441 5441 5445 5452 5464 5469 5458 5468 5491 5515 5511 5510 5517 5535 5560 5581 5603 5625 5646 5665 5691 5699 5709
5527 5527 5527 5524 5521 5521 5523 5523 5527 5533 5534 5533 5532 5528 5521 5509 5495 5482 5472 5469 5460 5451 5447 5453 5463 5471 5476 5474 5468 5460 5457 5453 5454 5454 5463 5466 5471 5470 5474 5499 5531 5511 5512 5528 5544 5556 5572 5593 5614 5638 5657 5684 5692 5696
5530 5531 5530 5529 5524 5522 5526 5528 5531 5538 5543 5543 5540 5537 5530 5517 5504 5494 5483 5473 5467 5459 5453 5457 5469 5467 5484 5484 5481 5474 5468 5464 5472 5474 5486 5492 5489 5485 5490 5512 5523 5541 5531 5537 5556 5574 5588 5601 5613 5626 5653 5673 5683 5681
5535 5533 5533 5531 5528 5526 5528 5531 5536 5542 5549 5551 5547 5537 5528 5518 5510 5499 5492 5481 5473 5464 5461 5461 5472 5479 5483 5489 5492 5496 5494 5496 5497 5497 5504 5501 5500 5501 5519 5539 5562 5565 5559 5567 5573 5579 5597 5609 5615 5624 5647 5656 5661 5664
5538 5536 5536 5533 5531 5530 5532 5535 5540 5548 5554 5556 5547 5536 5530 5518 5511 5504 5493 5483 5477 5472 5464 5465 5470 5482 5483 5500 5510 5507 5505 5508 5506 5509 5511 5509 5512 5532 5541 5556 5567 5571 5579 5575 5581 5585 5600 5607 5609 5620 5629 5643 5635 5626
5543 5540 5538 5537 5535 5535 5536 5537 5543 5548 5557 5550 5536 5527 5526 5522 5514 5510 5498 5488 5476 5479 5471 5478 5482 5490 5499 5502 5510 5508 5507 5500 5506 5516 5516 5513 5521 5537 5548 5563 5572 5577 5580 5578 5582 5593 5599 5608 5607 5612 5615 5616 5616 5619
5547 5544 5542 5541 5541 5539 5540 5541 5543 5548 5547 5544 5538 5533 5529 5523 5524 5525 5518 5503 5500 5508 5501 5503 5508 5500 5508 5512 5512 5513 5502 5503 5520 5520 5516 5514 5536 5548 5557 5565 5574 5581 5581 5585 5585 5585 5588 5594 5603 5603 5610 5613 5620 5615
5552 5549 5548 5548 5546 5545 5547 5547 5551 5554 5554 5550 5544 5541 5536 5526 5526 5527 5522 5529 5538 5539 5533 5532 5537 5530 5525 5523 5524 5528 5535 5531 5528 5516 5508 5531 5536 5544 5543 5547 5555 5564 5572 5584 5582 5583 5590 5592 5599 5603 5605 5607 5612 5616
5558 5557 5555 5553 5552 5552 5553 5556 5561 5561 5559 5553 5548 5529 5526 5524 5525 5527 5525 5527 5539 5545 5549 5548 5546 5541 5542 5536 5533 5540 5531 5528 5526 5518 5527 5526 5526 5528 5532 5533 5541 5546 5553 5559 5566 5575 5582 5586 5590 5595 5597 5600 5604 5601
5565 5565 5564 5561 5557 5558 5560 5564 5566 5564 5559 5551 5540 5512 5520 5522 5527 5533 5535 5541 5553 5558 5556 5556 5551 5548 5545 5543 5538 5528 5528 5516 5512 5531 5523 5522 5527 5526 5528 5533 5535 5543 5549 5551 5552 5557 5565 5571 5570 5574 5580 5584 5586 5589
5570 5573 5569 5566 5565 5567 5570 5572 5569 5566 5556 5549 5529 5521 5525 5536 5542 5548 5548 5549 5561 5564 5562 5561 5556 5549 5541 5535 5535 5527 5512 5514 5522 5524 5521 5523 5524 5527 5525 5527 5530 5538 5543 5543 5544 5550 5554 5559 5559 5559 5561 5563 5564 5565
5572 5570 5573 5571 5572 5574 5574 5573 5571 5562 5548 5538 5524 5520 5518 5519 5520 5525 5539 5544 5547 5560 5551 5555 5538 5529 5527 5519 5510 5506 5505 5503 5508 5510 5508 5512 5514 5515 5521 5529 5531 5533 5532 5534 5537 5539 5542 5545 5548 5551 5552 5549 5554 5551
5570 5573 5574 5573 5572 5573 5574 5571 5566 5553 5538 5525 5523 5522 5519 5520 5520 5530 5533 5541 5540 5532 5531 5524 5513 5505 5500 5494 5487 5489 5493 5500 5505 5502 5500 5504 5506 5506 5509 5508 5510 5513 5517 5521 5521 5521 5524 5524 5522 5521 5524 5530 5535 5536
5571 5572 5575 5575 5572 5568 5569 5568 5560 5547 5540 5528 5525 5524 5523 5520 5524 5526 5531 5534 5535 5525 5520 5508 5503 5488 5483 5481 5482 5483 5488 5491 5494 5499 5500 5499 5501 5502 5504 5507 5507 5507 5507 5506 5507 5506 5506 5505 5505 5510 5516 5521 5518 5515
5577 5576 5576 5575 5573 5568 5567 5558 5553 5549 5542 5534 5526 5528 5520 5517 5515 5519 5523 5524 5519 5512 5501 5489 5483 5479 5480 5474 5469 5470 5473 5477 5484 5490 5487 5491 5493 5496 5494 5495 5493 5494 5498 5499 5499 5498 5499 5501 5502 5502 5502 5502 5503 5499
5578 5577 5577 5575 5571 5566 5562 5555 5552 5545 5538 5537 5528 5525 5524 5516 5513 5508 5506 5505 5503 5489 5483 5479 5476 5473 5475 5475 5472 5470 5471 5470 5469 5471 5474 5478 5480 5482 5484 5483 5483 5481 5481 5480 5481 5483 5484 5480 5481 5483 5486 5485 5485 5483
5574 5575 5573 5571 5568 5565 5561 5553 5552 5544 5543 5538 5531 5525 5525 5523 5510 5504 5497 5501 5500 5489 5481 5474 5468 5464 5464 5463 5462 5462 5462 5466 5464 5462 5464 5463 5464 5465 5464 5462 5465 5464 5463 5463 5464 5465 5466 5466 5468 5470 5471 5467 5466 5465
5573 5571 5570 5570 5571 5559 5561 5555 5558 5550 5548 5540 5531 5532 5522 5523 5515 5503 5489 5483 5484 5479 5474 5470 5468 5463 5459 5456 5456 5453 5449 5449 5447 5444 5445 5442 5442 5442 5445 5447 5448 5448 5447 5444 5443 5445 5446 5446 5447 5447 5447 5447 5446 5444
5571 5567 5568 5564 5560 5555 5562 5561 5554 5551 5547 5541 5534 5532 5523 5516 5514 5495 5489 5481 5480 5474 5472 5468 5462 5459 5455 5453 5446 5440 5438 5436 5435 5435 5432 5433 5433 5431 5430 5429 5430 5430 5430 5430 5431 5430 5430 5429 5428 5428 5426 5425 5422 5419
5567 5566 5563 5548 5560 5563 5562 5559 5559 5554 5550 5541 5537 5526 5518 5511 5509 5491 5484 5479 5478 5477 5472 5464 5458 5453 5448 5444 5440 5437 5433 5430 5428 5426 5422 5420 5422 5423 5422 5421 5420 5419 5419 5421 5419 5419 5417 5417 5416 5415 5413 5410 5407 5404
5560 5569 5565 5568 5561 5561 5555 5557 5552 5549 5546 5544 5532 5519 5511 5507 5503 5493 5482 5481 5477 5475 5473 5469 5460 5449 5444 5439 5436 5434 5430 5425 5422 5420 5416 5412 5411 5410 5407 5406 5406 5409 5407 5405 5406 5406 5404 5402 5400 5399 5397 5394 5390 5389
5567 5571 5564 5555 5555 5553 5553 5548 5544 5544 5546 5542 5528 5523 5518 5513 5505 5492 5487 5482 5478 5478 5472 5468 5461 5453 5445 5437 5432 5428 5424 5421 5418 5414 5409 5406 5403 5400 5398 5396 5394 5394 5394 5395 5395 5393 5391 5388 5386 5384 5382 5379 5376 5374
5573 5567 5572 5565 5561 5554 5558 5552 5550 5546 5540 5527 5524 5525 5521 5513 5504 5496 5492 5489 5483 5475 5468 5461 5456 5449 5440 5434 5428 5424 5421 5416 5412 5407 5403 5400 5396 5393 5391 5390 5388 5388 5387 5386 5384 5382 5379 5376 5374 5371 5368 5365 5362 5361
5574 5569 5567 5568 5563 5559 5558 5556 5551 5542 5536 5529 5528 5516 5514 5507 5506 5503 5498 5490 5482 5474 5466 5458 5448 5442 5434 5427 5422 5416 5411 5406 5404 5397 5391 5386 5383 5383 5381 5379 5379 5378 5376 5375 5373 5371 5369 5366 5362 5359 5355 5353 5350 5349
5580 5570 5570 5569 5567 5567 5566 5559 5554 5546 5536 5533 5528 5521 5517 5513 5510 5504 5496 5487 5478 5473 5465 5457 5447 5439 5430 5423 5416 5410 5404 5398 5392 5387 5382 5377 5373 5369 5366 5365 5365 5365 5364 5363 5361 5358 5356 5354 5350 5347 5345 5343 5341 5340
5579 5575 5575 5571 5571 5571 5567 5557 5550 5546 5539 5535 5528 5525 5522 5514 5509 5502 5495 5488 5479 5468 5460 5451 5442 5434 5426 5417 5408 5402 5395 5390 5383 5377 5372 5366 5362 5358 5356 5354 5353 5352 5351 5350 5348 5346 5343 5340 5337 5335 5333 5332 5331 5330
5582 5580 5577 5576 5572 5565 5562 5558 5551 5549 5541 5536 5530 5522 5515 5511 5507 5502 5494 5484 5474 5466 5458 5448 5439 5432 5425 5418 5409 5400 5393 5383 5375 5369 5364 5358 5354 5351 5348 5346 5344 5343 5341 5339 5337 5334 5332 5329 5327 5326 5324 5323 5322 5322
5584 5580 5577 5572 5566 5564 5561 5557 5550 5547 5537 5532 5530 5524 5522 5514 5506 5500 5491 5483 5476 5466 5455 5447 5439 5431 5423 5415 5406 5398 5388 5380 5373 5367 5361 5357 5354 5350 5347 5343 5340 5337 5335 5331 5329 5326 5324 5322 5319 5318 5317 5317 5316 5316